Torna al catalogo

STARLINK-36353

AttivoComunicazioniSSO
NORAD 67820·PAYLOAD·🇺🇸 United States

Lanciato Feb 15, 2026 da Vandenberg Space Force Base

Loading…

Prossimi Passaggi (prossime 24 ore)

TLE

AggiornatoSource: CelesTrak SupGP

Epoca: Sep 14, 2026, 20:54 UTC

1 67820C 26032Z   26257.87131944  .00086314  00000+0  26801-2 0  2572
2 67820  97.2856  84.3663 0001441  96.5134 247.1444 15.33386899    12

Traccia STARLINK-36353 in tempo reale con AllMySat

Download on the App Store